This demonstration page uses our WeatherBlox Daily Observations layout. Learn more.

Left ArrowRight Arrow

39.12711, -84.51439

Hourly Observations for September 16, 2018

Temp ( °F °C ) Dew Point ( °F °C ) Humidity (%) Winds ( mph kmh ) Pressure ( in mb ) Visibility ( mi km ) Precip ( " mm )
12:53 am 00:53 Clear 71 21.7 71 21.7 100 100 Calm 30.06 1018 10 16 0.00 0.00
1:53 am 01:53 Clear 69 20.6 69 20.6 100 100 Calm 30.06 1018 10 16 0.00 0.00
2:53 am 02:53 Clear 69 20.6 69 20.6 100 100 Calm 30.06 1018 10 16 0.00 0.00
3:53 am 03:53 Clear 68 20 68 20 100 100 Calm 30.06 1018 10 16 0.00 0.00
4:53 am 04:53 Clear 68 20 68 20 100 100 Calm 30.06 1018 9 14 0.00 0.00
5:53 am 05:53 Clear 68 20 68 20 100 100 Calm 30.06 1018 10 16 0.00 0.00
6:53 am 06:53 Clear 69 20.6 69 20.6 100 100 NE 3 6 30.06 1018 10 16 0.00 0.00
7:53 am 07:53 Sunny 69 20.6 69 20.6 100 100 NNE 5 7 30.07 1018 10 16 0.00 0.00
8:53 am 08:53 Sunny 71 21.7 70 21.1 96 96 NE 7 11 30.09 1019 10 16 0.00 0.00
9:53 am 09:53 Sunny 74 23.3 71 21.7 91 91 NE 6 9 30.09 1019 10 16 0.00 0.00
10:53 am 10:53 Sunny 79 26.1 72 22.2 79 79 NE 8 13 30.09 1019 10 16 0.00 0.00
11:53 am 11:53 Sunny 80 26.7 71 21.7 74 74 NE 6 9 30.08 1019 10 16 0.00 0.00
12:53 pm 12:53 Sunny 81 27.2 71 21.7 72 72 E 7 11 30.06 1018 10 16 0.00 0.00
1:53 pm 13:53 Sunny 84 28.9 71 21.7 65 65 ENE 8 13 30.05 1018 10 16 0.00 0.00
2:53 pm 14:53 Mostly Sunny 85 29.4 70 21.1 61 61 ENE 10 17 30.02 1017 10 16 0.00 0.00
3:53 pm 15:53 Mostly Sunny 83 28.3 70 21.1 65 65 E 7 11 30.00 1016 10 16 0.00 0.00
4:53 pm 16:53 Mostly Sunny 82 27.8 70 21.1 67 67 ESE 7 11 30.00 1016 10 16 0.00 0.00
5:53 pm 17:53 Mostly Sunny 82 27.8 71 21.7 69 69 ENE 5 7 29.99 1016 10 16 0.00 0.00
6:53 pm 18:53 Mostly Sunny 82 27.8 71 21.7 69 69 E 5 7 29.99 1016 10 16 0.00 0.00
7:53 pm 19:53 Clear 78 25.6 70 21.1 76 76 ENE 5 7 29.99 1016 10 16 0.00 0.00
8:53 pm 20:53 Clear 75 23.9 71 21.7 88 88 NE 3 6 30.00 1016 10 16 0.00 0.00
9:53 pm 21:53 Clear 73 22.8 72 22.2 96 96 Calm 29.99 1016 10 16 0.00 0.00
10:53 pm 22:53 Clear 74 23.3 71 21.7 91 91 Calm 29.98 1015 10 16 0.00 0.00
11:53 pm 23:53 Cloudy 73 22.8 71 21.7 94 94 Calm 29.97 1015 10 16 0.00 0.00

Powered by AerisWeather